Location: Serpentine
(32.3617°S, 115.9768°E)
Time: 11:22:50
(UTC+08:00)

X-37B - Pass Details

Date: 15 December 2021
Orbit: 334 x 337 km, 45.0° (Epoch: 11 January)

Event Time Altitude Azimuth Distance (km) Brightness Sun altitude
Exits shadow 02:39:21 24° 156° (SSE) 774 2.8 -24.1°
Drops below altitude 10° 02:40:48 10° 139° (SE) 1,297 4.3 -23.9°
Sets 02:42:54 0° 130° (SE) 2,142 5.7 -23.6°
